This demonstration page uses our WeatherBlox Daily Observations layout. Learn more.

Left ArrowRight Arrow

38.20091, -84.87328

Hourly Observations for August 27, 2019

Temp ( °F °C ) Dew Point ( °F °C ) Humidity (%) Winds ( mph kmh ) Pressure ( in mb ) Visibility ( mi km ) Precip ( " mm )
12:17 am 00:17 Cloudy 70 21.1 68 20 93 93 SSE 3 6 29.89 1012 10 16 0.00 0.00
12:31 am 00:31 Cloudy 70 21.1 68 20 93 93 Calm 29.89 1012 10 16 0.00 0.00
12:38 am 00:38 Cloudy 70 21.1 68 20 93 93 SSE 3 6 29.89 1012 10 16 0.00 0.00
12:53 am 00:53 Cloudy 70 21.1 68 20 93 93 SE 5 7 29.88 1012 10 16 0.00 0.00
1:53 am 01:53 Cloudy 70 21.1 68 20 93 93 SSE 6 9 29.88 1012 10 16 0.00 0.00
2:03 am 02:03 Cloudy 70 21.1 68 20 93 93 S 6 9 29.89 1012 10 16 0.00 0.00
2:53 am 02:53 Cloudy 70 21.1 68 20 93 93 S 6 9 29.89 1012 7 11 0.00 0.00
3:51 am 03:51 Cloudy with Mist and Fog 70 21 68 20 94 94 S 6 9 29.89 1012 6 10 0.00 0.00
3:53 am 03:53 Cloudy with Mist and Fog 70 21.1 68 20 93 93 SSW 7 11 29.89 1012 6 10 0.00 0.00
4:13 am 04:13 Cloudy with Mist and Fog 70 21.1 68 20 93 93 S 9 15 29.89 1012 5 8 0.00 0.00
4:53 am 04:53 Cloudy 70 21.1 68 20 93 93 S 7 11 29.88 1012 10 16 0.00 0.00
5:13 am 05:13 Cloudy 70 21.1 68 20 93 93 S 8 13 29.88 1012 10 16 0.00 0.00
5:53 am 05:53 Cloudy 70 21.1 68 20 93 93 S 8 13 29.88 1012 10 16 0.00 0.00
6:53 am 06:53 Cloudy 71 21.7 68 20 90 90 SSW 8 13 29.89 1012 10 16 0.00 0.00
7:53 am 07:53 Cloudy 71 21.7 68 20 90 90 SSW 9 15 29.88 1012 10 16 0.00 0.00
8:53 am 08:53 Cloudy 72 22.2 69 20.6 91 91 SSW 10 17 29.88 1012 10 16 0.00 0.00
9:53 am 09:53 Cloudy 73 22.8 70 21.1 90 90 S 6 9 29.88 1012 10 16 0.00 0.00
10:21 am 10:21 Cloudy 75 23.9 70 21.1 84 84 SSW 9 15 29.87 1012 10 16 0.00 0.00
10:53 am 10:53 Cloudy 76 24.4 70 21.1 82 82 S 10 17 29.87 1012 10 16 0.00 0.00
11:53 am 11:53 Cloudy 77 25 71 21.7 82 82 SSW 12 19 29.87 1012 10 16 0.00 0.00
12:02 pm 12:02 Cloudy 78 25.6 71 21.7 79 79 SSW 8 13 29.86 1011 10 16 0.00 0.00
12:53 pm 12:53 Cloudy 78 25.6 72 22.2 82 82 SSW 12 19 29.87 1012 10 16 0.00 0.00
1:53 pm 13:53 Cloudy 77 25 71 21.7 82 82 SSW 9 15 29.88 1012 10 16 0.00 0.00
2:53 pm 14:53 Cloudy 77 25 72 22.2 85 85 WSW 9 15 29.88 1012 9 14 0.00 0.00
3:15 pm 15:15 Cloudy 76 24.4 73 22.8 91 91 WSW 7 11 29.87 1011 9 14 0.00 0.00
3:36 pm 15:36 Mostly Cloudy 78 25.6 74 23.3 87 87 S 10 17 29.85 1011 10 16 0.01 0.25
3:53 pm 15:53 Partly Cloudy 80 26.7 74 23.3 82 82 SSW 9 15 29.85 1011 10 16 0.01 0.25
4:31 pm 16:31 Cloudy 80 26.7 72 22.2 76 76 S 9 15 29.83 1010 10 16 0.00 0.00
4:53 pm 16:53 Cloudy 80 26.7 73 22.8 79 79 SSW 8 13 29.85 1011 10 16 0.00 0.00
5:15 pm 17:15 Cloudy 80 26.7 72 22.2 76 76 SW 9 15 29.83 1010 10 16 0.00 0.00
5:33 pm 17:33 Mostly Cloudy with Nearby Thunderstorms 80 26.7 72 22.2 76 76 WSW 8 13 29.83 1010 10 16 0.00 0.00
5:53 pm 17:53 Cloudy with Thunderstorms 78 25.6 73 22.8 85 85 W 3 6 29.85 1011 7 11 0.00 0.00
6:09 pm 18:09 Cloudy with Light Rain 77 25 74 23.3 90 90 SW 7 11 29.85 1011 6 10 0.02 0.51
6:53 pm 18:53 Cloudy with Light Rain 74 23.3 72 22.2 94 94 S 6 9 29.85 1011 6 10 0.03 0.76
7:35 pm 19:35 Cloudy with Thunderstorms 74 23.3 72 22.2 94 94 WNW 5 7 29.85 1011 10 16 0.00 0.00
7:53 pm 19:53 Cloudy with Thunderstorms 74 23.3 71 21.7 91 91 WNW 7 11 29.88 1012 6 10 0.02 0.51
8:00 pm 20:00 Cloudy with Nearby Thunderstorms 73 22.8 71 21.7 94 94 WNW 3 6 29.87 1012 3 4 0.02 0.51
8:15 pm 20:15 Cloudy with Nearby Thunderstorms 73 22.8 71 21.7 94 94 NNW 8 13 29.88 1012 2 3 0.06 1.52
8:48 pm 20:48 Cloudy with Light Rain 72 22 70 21 94 94 Calm 29.89 1012 8 13 0.07 1.78
8:53 pm 20:53 Cloudy 72 22.2 69 20.6 91 91 Calm 29.89 1012 10 16 0.07 1.78
9:24 pm 21:24 Cloudy 72 22.2 70 21.1 94 94 Calm 29.89 1012 10 16 0.00 0.00
9:33 pm 21:33 Cloudy 72 22.2 70 21.1 94 94 Calm 29.90 1013 10 16 0.00 0.00
9:53 pm 21:53 Cloudy 72 22.2 70 21.1 94 94 Calm 29.91 1013 10 16 0.00 0.00
10:53 pm 22:53 Mostly Cloudy 72 22.2 70 21.1 94 94 Calm 29.92 1013 10 16 0.00 0.00
11:10 pm 23:10 Mostly Clear with Mist and Fog 71 21.7 70 21.1 96 96 Calm 29.93 1013 2 3 0.00 0.00
11:23 pm 23:23 Clear with Mist and Fog 70 21.1 69 20.6 97 97 Calm 29.93 1013 1 1 0.00 0.00
11:35 pm 23:35 Mostly Cloudy with Fog 69 20.6 68 20 96 96 Calm 29.93 1014 0 0 0.00 0.00
11:53 pm 23:53 Mostly Cloudy with Fog 69 20.6 68 20 96 96 Calm 29.93 1013 0 0 0.00 0.00

Powered by AerisWeather